Location: Steilacoom
(47.1700°N, 122.5700°W)
Time: 05:46:32
(UTC-08:00)

ISS - Pass Details

Date: 25 November 2019
Orbit: 411 x 421 km, 51.6° (Epoch: 07 December)

Event Time Altitude Azimuth Distance (km) Brightness Sun altitude
Rises 19:31:14 0° 270° (W) 2,359 1.2 -30.9°
Reaches altitude 10° 19:33:24 10° 278° (W) 1,498 -0.1 -31.3°
Enters shadow 19:33:44 12° 280° (W) 1,373 -0.3 -31.4°
